User: anonymous   Login
Location: Unspecified
(0.0000°N, 0.0000°E)
Time: 14:44:47
(UTC+00:00)
Language:

Kosmos-2266 - Orbit

View from above orbital plane
View from above orbital plane
View from above satellite
View from above satellite

Ground track
Ground track

The orbit data is extracted from the following two-line orbital elements,

1 22888U 93070A   17202.92944152 +.00000010 +00000-0 -45415-5 0  9991
2 22888 082.9526 327.6701 0046792 261.3968 238.7614 13.74904593187092
Epoch (UTC): 21 July 2017 22:18:23
Eccentricity: 0.0046792
inclination: 82.9526°
perigee height: 947 km
apogee height: 1016 km
right ascension of ascending node: 327.6701°
argument of perigee: 261.3968°
revolutions per day: 13.74904593
mean anomaly at epoch: 238.7614°
orbit number at epoch: 18709

The dashed part of the orbit path shows where the satellite is in the earth's shadow,  

DLR